Change the Weather History Date:

Thursday, April 10, 2014

  Actual Average (KSEP) Record (KSEP)
Temperature  
Mean Temperature 76 °F -  
Max Temperature 91 °F 72 °F 97 °F (1963)
Min Temperature 61 °F 48 °F 33 °F (1952)
Cooling Degree Days 11    
Growing Degree Days 26 (Base 50)    
Moisture  
Dew Point 44 °F    
Average Humidity 35    
Maximum Humidity 63    
Minimum Humidity 18    
Precipitation  
Precipitation 0.00 in - - ()
Sea Level Pressure  
Sea Level Pressure 29.93 in    
Wind  
Wind Speed 19 mph (SSW)    
Max Wind Speed 32 mph    
Max Gust Speed 41 mph    
Visibility 10 miles    
Events      
Averages and records for this station are not official NWS values.
T = Trace of Precipitation, MM = Missing Value Source: NWS Daily Summary

Daily Weather History Graph

Daily Weather History Graph

Search for Another Location

Airport or City:

Trip Planner

Search our weather history database for the weather conditions in past years. The results will help you decide how hot, cold, wet, or windy it might be!

Date:

Astronomy

Apr. 10, 2014 Rise Set
Actual Time 7:11 AM CDT 8:00 PM CDT
Civil Twilight 6:46 AM CDT 8:25 PM CDT
Nautical Twilight 6:17 AM CDT 8:54 PM CDT
Astronomical Twilight 5:47 AM CDT 9:24 PM CDT
Moon 3:59 PM CDT (4/10) 4:19 AM CDT (4/10)
Length of Visible Light 13h 38m
Length of Day
12h 48m
Waxing Gibbous, 80% of the Moon is Illuminated
Apr 10
Waxing Gibbous
Apr 15
Full
Apr 22
Last Quarter
Apr 29
New
May 6
First Quarter

Hourly Weather History & Observations

Time (CDT) Temp. Dew Point Humidity Pressure Visibility Wind Dir Wind Speed Gust Speed Precip Events Conditions
12:15 AM 70.2 °F 36.1 °F 29% 30.02 in 10.0 mi South 15.0 mph 26.5 mph N/A   Clear
12:35 AM 69.8 °F 36.5 °F 29% 30.02 in 10.0 mi South 18.4 mph 26.5 mph N/A   Clear
12:55 AM 68.9 °F 39.0 °F 34% 30.01 in 10.0 mi South 23.0 mph 27.6 mph N/A   Clear
1:15 AM 68.4 °F 41.0 °F 37% 30.01 in 10.0 mi South 23.0 mph 28.8 mph N/A   Clear
1:35 AM 67.6 °F 42.8 °F 41% 30.00 in 10.0 mi SSW 23.0 mph 29.9 mph N/A   Clear
1:55 AM 67.1 °F 44.2 °F 44% 30.00 in 10.0 mi South 21.9 mph 29.9 mph N/A   Clear
2:15 AM 66.6 °F 45.1 °F 46% 30.00 in 10.0 mi SSW 19.6 mph 26.5 mph N/A   Clear
2:35 AM 66.2 °F 45.9 °F 48% 29.99 in 10.0 mi SSW 20.7 mph 31.1 mph N/A   Clear
2:55 AM 65.5 °F 46.4 °F 50% 29.99 in 10.0 mi SSW 19.6 mph 27.6 mph N/A   Clear
3:15 AM 64.8 °F 47.1 °F 53% 29.98 in 10.0 mi SSW 18.4 mph 25.3 mph N/A   Clear
3:35 AM 64.9 °F 47.3 °F 53% 29.97 in 10.0 mi SSW 19.6 mph 27.6 mph N/A   Clear
3:55 AM 64.9 °F 47.5 °F 53% 29.97 in 10.0 mi SSW 19.6 mph 27.6 mph N/A   Clear
4:15 AM 64.2 °F 48.2 °F 56% 29.97 in 10.0 mi SSW 20.7 mph 25.3 mph N/A   Clear
4:35 AM 63.0 °F 48.4 °F 59% 29.97 in 10.0 mi SSW 15.0 mph 21.9 mph N/A   Clear
4:55 AM 62.8 °F 48.6 °F 60% 29.97 in 10.0 mi SSW 16.1 mph 20.7 mph N/A   Clear
5:15 AM 62.8 °F 48.6 °F 60% 29.96 in 10.0 mi SSW 19.6 mph 24.2 mph N/A   Clear
5:35 AM 63.5 °F 48.7 °F 59% 29.96 in 10.0 mi SSW 17.3 mph 32.2 mph N/A   Clear
5:55 AM 63.0 °F 48.9 °F 60% 29.96 in 10.0 mi SSW 16.1 mph 21.9 mph N/A   Clear
6:15 AM 62.6 °F 49.1 °F 61% 29.96 in 10.0 mi SSW 17.3 mph 24.2 mph N/A   Clear
6:35 AM 62.1 °F 49.1 °F 62% 29.96 in 10.0 mi SSW 15.0 mph 24.2 mph N/A   Clear
6:55 AM 61.7 °F 48.9 °F 63% 29.97 in 10.0 mi SSW 19.6 mph 24.2 mph N/A   Clear
7:15 AM 61.7 °F 48.2 °F 61% 29.97 in 10.0 mi SSW 17.3 mph 25.3 mph N/A   Clear
7:35 AM 62.4 °F 46.8 °F 57% 29.96 in 10.0 mi SSW 18.4 mph 24.2 mph N/A   Clear
7:55 AM 63.5 °F 45.5 °F 52% 29.97 in 10.0 mi South 13.8 mph 25.3 mph N/A   Clear
8:15 AM 64.6 °F 44.6 °F 48% 29.97 in 10.0 mi SSW 17.3 mph 26.5 mph N/A   Clear
8:35 AM 65.5 °F 43.9 °F 46% 29.97 in 10.0 mi SSW 17.3 mph 21.9 mph N/A   Clear
8:55 AM 65.5 °F 41.9 °F 42% 29.98 in 10.0 mi SSW 16.1 mph 31.1 mph N/A   Clear
9:15 AM 67.1 °F 41.2 °F 39% 29.97 in 10.0 mi SSW 19.6 mph 29.9 mph N/A   Clear
9:35 AM 67.8 °F 41.4 °F 38% 29.97 in 10.0 mi SSW 18.4 mph 28.8 mph N/A   Clear
9:55 AM 70.0 °F 40.8 °F 35% 29.97 in 10.0 mi SSW 21.9 mph 34.5 mph N/A   Clear
10:15 AM 72.1 °F 41.7 °F 33% 29.96 in 10.0 mi SSW 28.8 mph 38.0 mph N/A   Clear
10:35 AM 72.7 °F 41.7 °F 33% 29.96 in 10.0 mi SSW 32.2 mph 41.4 mph N/A   Clear
10:55 AM 74.5 °F 42.1 °F 31% 29.97 in 10.0 mi SSW 25.3 mph 36.8 mph N/A   Clear
11:15 AM 76.1 °F 41.5 °F 29% 29.97 in 10.0 mi SSW 27.6 mph 36.8 mph N/A   Clear
11:35 AM 78.3 °F 41.5 °F 27% 29.97 in 10.0 mi SSW 23.0 mph 33.4 mph N/A   Clear
11:55 AM 80.2 °F 42.1 °F 26% 29.98 in 10.0 mi South 20.7 mph 26.5 mph N/A   Clear
12:15 PM 81.7 °F 41.2 °F 24% 29.97 in 10.0 mi SSW 20.7 mph 29.9 mph N/A   Clear
12:35 PM 82.8 °F 41.4 °F 23% 29.96 in 10.0 mi SSW 13.8 mph 31.1 mph N/A   Clear
12:55 PM 84.2 °F 40.6 °F 21% 29.94 in 10.0 mi SSW 21.9 mph 29.9 mph N/A   Clear
1:15 PM 85.1 °F 41.5 °F 22% 29.93 in 10.0 mi South 21.9 mph 32.2 mph N/A   Clear
1:35 PM 86.0 °F 41.7 °F 21% 29.92 in 10.0 mi South 23.0 mph 33.4 mph N/A   Clear
1:55 PM 87.6 °F 41.4 °F 20% 29.92 in 10.0 mi SSW 24.2 mph 31.1 mph N/A   Clear
2:15 PM 87.3 °F 41.7 °F 20% 29.91 in 10.0 mi SW 21.9 mph 31.1 mph N/A   Clear
2:35 PM 87.8 °F 41.2 °F 19% 29.90 in 10.0 mi SW 21.9 mph 29.9 mph N/A   Clear
2:55 PM 89.6 °F 42.6 °F 19% 29.89 in 10.0 mi SSW 19.6 mph 26.5 mph N/A   Clear
3:15 PM 90.1 °F 42.6 °F 19% 29.88 in 10.0 mi South 23.0 mph 27.6 mph N/A   Clear
3:35 PM 90.1 °F 41.9 °F 19% 29.88 in 10.0 mi SSW 17.3 mph 33.4 mph N/A   Clear
3:55 PM 89.6 °F 41.2 °F 18% 29.87 in 10.0 mi South 18.4 mph 28.8 mph N/A   Clear
4:15 PM 91.0 °F 41.5 °F 18% 29.86 in 10.0 mi SSW 20.7 mph 28.8 mph N/A   Clear
4:35 PM 90.0 °F 41.7 °F 19% 29.85 in 10.0 mi South 17.3 mph 28.8 mph N/A   Clear
4:55 PM 88.9 °F 41.7 °F 19% 29.84 in 10.0 mi South 16.1 mph 20.7 mph N/A   Clear
5:15 PM 89.2 °F 40.8 °F 18% 29.83 in 10.0 mi South 23.0 mph 28.8 mph N/A   Clear
5:35 PM 89.6 °F 41.5 °F 19% 29.83 in 10.0 mi SSW 17.3 mph 28.8 mph N/A   Clear
5:55 PM 89.1 °F 40.1 °F 18% 29.83 in 10.0 mi South 17.3 mph 28.8 mph N/A   Clear
6:15 PM 89.4 °F 41.9 °F 19% 29.83 in 10.0 mi South 21.9 mph 27.6 mph N/A   Clear
6:35 PM 87.6 °F 41.5 °F 20% 29.83 in 10.0 mi South 19.6 mph 32.2 mph N/A   Clear
6:55 PM 85.6 °F 42.3 °F 22% 29.83 in 10.0 mi South 18.4 mph 25.3 mph N/A   Clear
7:15 PM 85.3 °F 43.9 °F 23% 29.83 in 10.0 mi South 15.0 mph 26.5 mph N/A   Clear
7:35 PM 83.3 °F 45.7 °F 27% 29.84 in 10.0 mi South 16.1 mph 26.5 mph N/A   Clear
7:55 PM 81.7 °F 45.7 °F 28% 29.84 in 10.0 mi South 16.1 mph 23.0 mph N/A   Clear
8:15 PM 80.1 °F 45.5 °F 30% 29.85 in 10.0 mi South 15.0 mph 21.9 mph N/A   Clear
8:35 PM 78.8 °F 45.3 °F 31% 29.85 in 10.0 mi South 15.0 mph 20.7 mph N/A   Clear
9:15 PM 77.7 °F 44.6 °F 31% 29.85 in 10.0 mi South 15.0 mph 25.3 mph N/A   Clear
9:35 PM 77.0 °F 44.2 °F 31% 29.86 in 10.0 mi South 15.0 mph - N/A   Clear
9:55 PM 76.8 °F 43.7 °F 31% 29.87 in 10.0 mi South 16.1 mph 24.2 mph N/A   Clear
10:15 PM 76.3 °F 43.5 °F 31% 29.87 in 10.0 mi South 16.1 mph 24.2 mph N/A   Clear
10:35 PM 75.7 °F 43.7 °F 32% 29.88 in 10.0 mi South 16.1 mph 23.0 mph N/A   Clear
10:55 PM 75.4 °F 44.1 °F 33% 29.89 in 10.0 mi South 17.3 mph 25.3 mph N/A   Clear
11:15 PM 75.0 °F 44.6 °F 34% 29.89 in 10.0 mi South 15.0 mph 25.3 mph N/A   Clear
11:35 PM 74.3 °F 47.3 °F 38% 29.89 in 10.0 mi South 17.3 mph 26.5 mph N/A   Clear
11:55 PM 73.2 °F 50.7 °F 45% 29.90 in 10.0 mi South 17.3 mph 26.5 mph N/A   Clear